Retour au catalogue

ATLAS 5 CENTAUR DEB

LostHEO
NORAD 44893·DEBRIS·🇺🇸 United States

Lancé Sep 17, 2014 depuis Cape Canaveral Space Force Station

Loading…

Prochains Passages (prochaines 24 heures)

TLE

PériméSource: Space-Track

Époque: Aug 2, 2026, 22:59 UTC

1 44893U 14055CJ  26214.95795501 -.00000093  00000-0  00000+0 0  9991
2 44893  20.5407 124.9942 4803163 199.7039 132.4929  1.88243864 46130

Suivez ATLAS 5 CENTAUR DEB en temps réel avec AllMySat

Download on the App Store